Location: Ferchesar
(52.6477°N, 12.4298°E)
Time: 09:24:52
(UTC+01:00)

Transit 4A - Visible Passes

Search period start: 30 November 2022 00:00
Search period end: 10 December 2022 00:00
Orbit: 871 x 972 km, 66.8° (Epoch: 29 November)

Date Brightness Start Highest point End Pass type
(mag) Time Alt. Az. Time Alt. Az. Time Alt. Az.
30 Nov 7.8 16:35:31 10° NW 16:41:21 69° NE 16:47:12 10° SE visible
30 Nov 9.7 18:22:20 10° NW 18:27:18 30° WSW 18:32:17 10° S visible
01 Dec 7.8 16:44:46 10° NW 16:50:38 89° NE 16:56:31 10° SE visible
01 Dec 10.3 18:32:01 10° WNW 18:36:16 21° WSW 18:40:33 10° SSW visible
02 Dec 8.2 16:54:02 10° NW 16:59:50 69° WSW 17:05:40 10° SSE visible
02 Dec 10.8 18:42:04 10° WNW 18:45:10 15° WSW 18:48:16 10° SW visible
03 Dec 8.8 17:03:22 10° NW 17:08:59 51° WSW 17:14:38 10° SSE visible
04 Dec 11.0 06:33:05 10° SE 06:36:02 14° ESE 06:38:58 10° ENE visible
04 Dec 9.5 17:12:46 10° NW 17:18:04 37° WSW 17:23:22 10° S visible
05 Dec 10.7 06:40:43 10° SSE 06:44:56 20° ESE 06:49:05 10° ENE visible
05 Dec 10.2 17:22:19 10° NW 17:27:04 26° WSW 17:31:51 10° SSW visible
06 Dec 10.1 06:48:54 10° SSE 06:53:53 28° ESE 06:58:47 10° NE visible
06 Dec 10.8 17:32:04 10° WNW 17:36:00 19° WSW 17:39:58 10° SSW visible
07 Dec 9.5 06:57:27 10° S 07:02:54 39° ESE 07:08:18 10° NE visible
07 Dec 11.1 17:42:23 10° WNW 17:44:53 13° WSW 17:47:24 10° SW visible
08 Dec 11.2 05:25:41 10° ESE 05:26:55 11° E 05:28:08 10° E visible
08 Dec 8.8 07:06:14 10° SSW 07:12:00 54° ESE 07:17:41 10° NE visible
09 Dec 10.8 05:32:18 10° SE 05:35:45 16° ESE 05:39:11 10° ENE visible
09 Dec 8.2 07:15:14 10° SSW 07:21:09 73° SE 07:26:59 10° NE visible
